SV7GBF-2 Weather Reports


time (UTC)temp
F
wind
direction
speed
knots
gust
knots
rain 1hr
in
rain 24hr
in
rain mn
in
humidity
%
barometer
mb
20260507112404 71 0 0.0 0.0 0.00 0.00 0.00 44
20260507111403 69 0 0.0 0.0 0.00 0.00 0.00 43
20260507104405 69 0 0.0 0.0 0.00 0.00 0.00 36
20260507103404 70 0 0.0 0.0 0.00 0.00 0.00 36
20260507102406 71 0 0.0 0.0 0.00 0.00 0.00 36
20260507101404 70 0 0.0 0.0 0.00 0.00 0.00 38
20260507094403 68 0 0.0 0.0 0.00 0.00 0.00 42
20260507093403 69 0 0.0 0.0 0.00 0.00 0.00 42
20260507092406 68 0 0.0 0.0 0.00 0.00 0.00 44
20260507091403 68 0 0.0 0.0 0.00 0.00 0.00 45
20260507090404 68 0 0.0 0.0 0.00 0.00 0.00 45
20260507085403 68 0 0.0 0.0 0.00 0.00 0.00 46
20260507084404 67 0 0.0 0.0 0.00 0.00 0.00 49
20260507083404 67 0 0.0 0.0 0.00 0.00 0.00 50
20260507082405 67 0 0.0 0.0 0.00 0.00 0.00 51
20260507081403 67 0 0.0 0.0 0.00 0.00 0.00 54
20260507070403 63 0 0.0 0.0 0.00 0.00 0.00 81
20260507064403 62 0 0.0 0.0 0.00 0.00 0.00 81
20260507062403 62 0 0.0 0.0 0.00 0.00 0.00 80
20260507060403 61 0 0.0 0.0 0.00 0.00 0.00 76
20260507055404 60 0 0.0 0.0 0.00 0.00 0.00 74
20260507054404 60 0 0.0 0.0 0.00 0.00 0.00 74
20260507053404 60 0 0.0 0.0 0.00 0.00 0.00 72
20260507051403 59 0 0.0 0.0 0.00 0.00 0.00 72
20260507044403 58 0 0.0 0.0 0.00 0.00 0.00 71
20260507043403 58 0 0.0 0.0 0.00 0.00 0.00 71
20260507042405 57 0 0.0 0.0 0.00 0.00 0.00 69
20260507041403 56 0 0.0 0.0 0.00 0.00 0.00 68
20260507040403 55 0 0.0 0.0 0.00 0.00 0.00 68
20260507035404 55 0 0.0 0.0 0.00 0.00 0.00 69
20260507034406 55 0 0.0 0.0 0.00 0.00 0.00 70
20260507033405 54 0 0.0 0.0 0.00 0.00 0.00 70
20260507032404 53 0 0.0 0.0 0.00 0.00 0.00 68
20260507031403 54 0 0.0 0.0 0.00 0.00 0.00 67
20260507030403 54 0 0.0 0.0 0.00 0.00 0.00 68
20260507025404 54 0 0.0 0.0 0.00 0.00 0.00 69
20260507024405 54 0 0.0 0.0 0.00 0.00 0.00 68
20260507023403 55 0 0.0 0.0 0.00 0.00 0.00 69
20260507022403 55 0 0.0 0.0 0.00 0.00 0.00 68
20260507021404 55 0 0.0 0.0 0.00 0.00 0.00 68
20260507020404 55 0 0.0 0.0 0.00 0.00 0.00 68
20260507015406 55 0 0.0 0.0 0.00 0.00 0.00 67
20260507014403 55 0 0.0 0.0 0.00 0.00 0.00 67
20260507013404 56 0 0.0 0.0 0.00 0.00 0.00 69
20260507012404 55 0 0.0 0.0 0.00 0.00 0.00 69
20260507010404 55 0 0.0 0.0 0.00 0.00 0.00 68
20260507005403 56 0 0.0 0.0 0.00 0.00 0.00 69
20260507004403 55 0 0.0 0.0 0.00 0.00 0.00 70
20260507003403 54 0 0.0 0.0 0.00 0.00 0.00 68
20260507001404 55 0 0.0 0.0 0.00 0.00 0.00 68
20260507000405 55 0 0.0 0.0 0.00 0.00 0.00 67
20260506235403 56 0 0.0 0.0 0.00 0.00 0.00 67
20260506234403 56 0 0.0 0.0 0.00 0.00 0.00 68
20260506233404 56 0 0.0 0.0 0.00 0.00 0.00 68
20260506231404 56 0 0.0 0.0 0.00 0.00 0.00 64
20260506230404 56 0 0.0 0.0 0.00 0.00 0.00 63
20260506224404 56 0 0.0 0.0 0.00 0.00 0.00 62
20260506223403 58 0 0.0 0.0 0.00 0.00 0.00 69
20260506220403 57 0 0.0 0.0 0.00 0.00 0.00 68
20260506215403 56 0 0.0 0.0 0.00 0.00 0.00 68
20260506214403 56 0 0.0 0.0 0.00 0.00 0.00 67
20260506213404 56 0 0.0 0.0 0.00 0.00 0.00 68
20260506212403 56 0 0.0 0.0 0.00 0.00 0.00 65
20260506204403 59 0 0.0 0.0 0.00 0.00 0.00 64
20260506192404 60 0 0.0 0.0 0.00 0.00 0.00 63
20260506191403 60 0 0.0 0.0 0.00 0.00 0.00 64
20260506190403 60 0 0.0 0.0 0.00 0.00 0.00 61
20260506184404 62 0 0.0 0.0 0.00 0.00 0.00 59
20260506183403 63 0 0.0 0.0 0.00 0.00 0.00 57
20260506181403 65 0 0.0 0.0 0.00 0.00 0.00 55
20260506180403 66 0 0.0 0.0 0.00 0.00 0.00 53
20260506175404 66 0 0.0 0.0 0.00 0.00 0.00 53
20260506174403 66 0 0.0 0.0 0.00 0.00 0.00 54
20260506173403 66 0 0.0 0.0 0.00 0.00 0.00 52
20260506171404 66 0 0.0 0.0 0.00 0.00 0.00 58
20260506170404 65 0 0.0 0.0 0.00 0.00 0.00 56
20260506165405 66 0 0.0 0.0 0.00 0.00 0.00 51
20260506164405 67 0 0.0 0.0 0.00 0.00 0.00 47
20260506163406 69 0 0.0 0.0 0.00 0.00 0.00 42
20260506162403 68 0 0.0 0.0 0.00 0.00 0.00 43
20260506161403 69 0 0.0 0.0 0.00 0.00 0.00 42
20260506160404 69 0 0.0 0.0 0.00 0.00 0.00 42
20260506155403 69 0 0.0 0.0 0.00 0.00 0.00 39
20260506154403 70 0 0.0 0.0 0.00 0.00 0.00 34
20260506153404 71 0 0.0 0.0 0.00 0.00 0.00 31
20260506152403 72 0 0.0 0.0 0.00 0.00 0.00 24
20260506151403 73 0 0.0 0.0 0.00 0.00 0.00 21
20260506145404 76 0 0.0 0.0 0.00 0.00 0.00 10
20260506144404 76 0 0.0 0.0 0.00 0.00 0.00 13
20260506143404 76 0 0.0 0.0 0.00 0.00 0.00 10
20260506142404 77 0 0.0 0.0 0.00 0.00 0.00 10
20260506141403 79 0 0.0 0.0 0.00 0.00 0.00 10
20260506140403 79 0 0.0 0.0 0.00 0.00 0.00 10
20260506133403 80 0 0.0 0.0 0.00 0.00 0.00 10
20260506131403 80 0 0.0 0.0 0.00 0.00 0.00 10
20260506125404 79 0 0.0 0.0 0.00 0.00 0.00 10
20260506124405 79 0 0.0 0.0 0.00 0.00 0.00 10
20260506123403 79 0 0.0 0.0 0.00 0.00 0.00 10
20260506122404 79 0 0.0 0.0 0.00 0.00 0.00 10
20260506121405 79 0 0.0 0.0 0.00 0.00 0.00 10
20260506115405 77 0 0.0 0.0 0.00 0.00 0.00 10
20260506114403 76 0 0.0 0.0 0.00 0.00 0.00 10
20260506113403 75 0 0.0 0.0 0.00 0.00 0.00 13